COSMOS 2251 DEB

Satellite information

Favourite Embed

Satellite Type and Status

DEBRISIN ORBIT

Key statistics

Satellite COSMOS 2251 DEB at a glance.

Uptime

11869

Days in orbit

Revolutions

≈ 14.0

Per day

Orbit

LEO

Low Earth Orbit

Inclination

73.8

Latest

Satellite identification and parameters

Extended collection of information and parameters for COSMOS 2251 DEB.

Object identification

Identified? True

Debris? True

Object name: COSMOS 2251 DEB

International designator: 1993-036BQ

Object number (NORAD): 33823

Object ID (CCSDS): 33823

Country: COMMONWEALTH OF INDEPENDENT STATES (CIS)

Current information (Y/N): Y

RCS size: SMALL

Orbital parameters

Period: 102.934 minutes

Inclination: 73.8088 deg

SMA: 7275.56 km

Apoapsis: 1049.735 km

Periapsis: 745.115 km

RAAN: 147.6584 deg

Eccentricy: 0.02093442

Argument of periapsis: 272.6643 deg

Mean anomaly: 98.9069 deg

Mean motion: 13.98952971 rev/day

Mean motion (dot): 0.00001775 rev/day2

B* drag term: 0.0010344952 1/REarth

Two-line elements (TLE)

Creation date: Dec. 14, 2025, 3:07 a.m.

Reference frame: TEME

Reference center: EARTH

Epoch: Dec. 13, 2025, 4:38 p.m. UTC

TLE line 0: 0 COSMOS 2251 DEB

TLE line 1: 1 33823U 93036BQ 25347.69362786 .00001775 00000-0 10345-2 0 9993

TLE line 2: 2 33823 73.8088 147.6584 0209344 272.6643 98.9069 13.98952971856231

Live tracking on map

Real-time ground track for satellite COSMOS 2251 DEB.

In-orbit conjunctions

A list of the most updated potential collisions computed for object COSMOS 2251 DEB.

Target Orbit TCA Probability of collision Miss distance Type
CZ-6A DEB SSO 2025-10-08 02:57:17 0.0001387582 333.0 (m) DEBRIS
CZ-6A DEB LEO 2024-10-22 16:01:10 0.0003546752 190.0 (m) DEBRIS

Associated space launch

Military communications satellite. Destroyed in a collision with Iridium 33.

COSMOS 2251 DEB was lifted into orbit during the mission ‘Kosmos-3M | Strela-2M 51’, on board a Kosmos-3M space rocket.

The launch took place on June 16, 1993, 4:17 a.m. from 132/1 (132L).

For more information about the launch, click the button.

Launch to space Kosmos-3M | Strela-2M 51
Kosmos-3M | Strela-2M 51

Agency: N/A

Status: Launch Successful

Launch date: June 16, 1993, 4:17 a.m. UTC

Rocket: Kosmos-3M

Launch pad: 132/1 (132L)

Location: Plesetsk Cosmodrome, Russian Federation

...

Latest news about this satellite

There are no fresh news available about this satellite. Check back as we update our databases every day.


Newsletter sign-up

Weekly statistics, charts and insights to help you stay on top of the space industry.